Location: Ravensburg
(48.5621°N, 13.4088°E)
Time: 19:48:50
(UTC+02:00)

ISS - Pass Details

Date: 30 March 2017
Orbit: 399 x 409 km, 51.6° (Epoch: 29 March)

Event Time Altitude Azimuth Distance (km) Brightness Sun altitude
Rises 22:24:43 0° 269° (W) 2,315 0.7 -26.2°
Reaches altitude 10° 22:26:50 10° 275° (W) 1,459 -0.4 -26.4°
Enters shadow 22:28:00 20° 282° (WNW) 1,012 -1.2 -26.6°
